Weather History for KEAU - April, 2014

Change the Weather History Date:

Tuesday, April 15, 2014

  Actual Average Record
Temperature  
Mean Temperature 29 °F 46 °F  
Max Temperature 37 °F 58 °F 91 °F (2002)
Min Temperature 21 °F 34 °F 10 °F (1928)
Degree Days  
Heating Degree Days 36 19  
Month to date heating degree days 395 341  
Since 1 July heating degree days 8571 7406  
Cooling Degree Days 0 0  
Month to date cooling degree days 0 0  
Year to date cooling degree days 0 0  
Moisture  
Dew Point 10 °F    
Average Humidity 49    
Maximum Humidity 71    
Minimum Humidity 26    
Precipitation  
Precipitation T in 0.09 in 2.31 in (1973)
Month to date precipitation 2.41 1.25  
Year to date precipitation 6.34 4.68  
Snow  
Snow T in 0.00 in 4.00 in (1904)
Month to date snowfall 9.1 1.3  
Since 1 July snowfall 74.8 46.2  
Snow Depth T in    
Sea Level Pressure  
Sea Level Pressure 30.13 in    
Wind  
Wind Speed 6 mph (WNW)    
Max Wind Speed 15 mph    
Max Gust Speed 20 mph    
Visibility 10 miles    
Events Snow    
T = Trace of Precipitation, MM = Missing Value Source: NWS Daily Summary

Daily Weather History Graph

Daily Weather History Graph

Search for Another Location

Airport or City:

Trip Planner

Search our weather history database for the weather conditions in past years. The results will help you decide how hot, cold, wet, or windy it might be!

Date:

Astronomy

Apr. 15, 2014 Rise Set
Actual Time 6:21 AM CDT 7:51 PM CDT
Civil Twilight 5:50 AM CDT 8:21 PM CDT
Nautical Twilight 5:13 AM CDT 8:59 PM CDT
Astronomical Twilight 4:34 AM CDT 9:38 PM CDT
Moon 8:34 PM CDT (4/15) 6:29 AM CDT (4/15)
Length of Visible Light 14h 31m
Length of Day
13h 29m
Full, 100% of the Moon is Illuminated
Apr 15
Full
Apr 22
Last Quarter
Apr 29
New
May 6
First Quarter
May 14
Full

Hourly Weather History & Observations

Time (CDT) Temp. Windchill Dew Point Humidity Pressure Visibility Wind Dir Wind Speed Gust Speed Precip Events Conditions
12:56 AM 23.0 °F 15.8 °F 10.9 °F 60% 30.10 in 10.0 mi NNW 5.8 mph - N/A   Clear
1:56 AM 21.9 °F 15.7 °F 12.0 °F 66% 30.10 in 10.0 mi NW 4.6 mph - N/A   Clear
2:56 AM 21.0 °F 14.6 °F 12.9 °F 71% 30.10 in 10.0 mi NW 4.6 mph - N/A   Clear
3:56 AM 21.9 °F 14.5 °F 12.9 °F 68% 30.11 in 10.0 mi NW 5.8 mph - N/A   Mostly Cloudy
4:56 AM 23.0 °F 13.9 °F 12.0 °F 63% 30.12 in 10.0 mi NNW 8.1 mph - N/A   Overcast
5:56 AM 21.9 °F 14.5 °F 12.9 °F 68% 30.13 in 10.0 mi NNW 5.8 mph - N/A   Partly Cloudy
6:56 AM 21.0 °F 14.6 °F 14.0 °F 74% 30.14 in 10.0 mi NNW 4.6 mph - N/A   Mostly Cloudy
7:56 AM 24.1 °F 16.0 °F 15.1 °F 69% 30.15 in 10.0 mi NNW 6.9 mph - N/A   Clear
8:43 AM 25.0 °F 16.3 °F 14.0 °F 63% 30.11 in 9.0 mi NW 8.1 mph - 0.00 in Snow Light Snow
8:56 AM 24.1 °F 16.0 °F 15.1 °F 69% 30.16 in 9.0 mi NW 6.9 mph - 0.00 in   Mostly Cloudy
9:09 AM 25.0 °F 19.3 °F 12.9 °F 60% 30.12 in 10.0 mi WNW 4.6 mph - N/A   Scattered Clouds
9:56 AM 26.1 °F 16.8 °F 10.9 °F 53% 30.17 in 10.0 mi WNW 9.2 mph - N/A   Mostly Cloudy
10:56 AM 28.0 °F 18.1 °F 8.1 °F 43% 30.17 in 10.0 mi West 11.5 mph - N/A   Overcast
11:56 AM 28.9 °F 19.8 °F 8.1 °F 41% 30.17 in 10.0 mi West 10.4 mph - N/A   Overcast
12:56 PM 30.9 °F 23.5 °F 8.1 °F 38% 30.15 in 10.0 mi SSW 8.1 mph - N/A   Mostly Cloudy
1:56 PM 33.1 °F 28.7 °F 7.0 °F 34% 30.13 in 10.0 mi Variable 4.6 mph 17.3 mph N/A   Clear
2:56 PM 34.0 °F 28.0 °F 5.0 °F 30% 30.12 in 10.0 mi Variable 6.9 mph 18.4 mph N/A   Partly Cloudy
3:56 PM 35.1 °F 28.6 °F 6.1 °F 30% 30.10 in 10.0 mi West 8.1 mph - N/A   Clear
4:56 PM 36.0 °F 31.1 °F 5.0 °F 27% 30.09 in 10.0 mi West 5.8 mph - N/A   Clear
5:56 PM 36.0 °F 32.1 °F 3.9 °F 26% 30.09 in 10.0 mi Variable 4.6 mph - N/A   Clear
6:56 PM 35.1 °F 28.6 °F 5.0 °F 28% 30.11 in 10.0 mi SW 8.1 mph - N/A   Clear
7:56 PM 32.0 °F 27.5 °F 5.0 °F 32% 30.11 in 10.0 mi SW 4.6 mph - N/A   Clear
8:56 PM 30.9 °F 26.2 °F 8.1 °F 38% 30.13 in 10.0 mi South 4.6 mph - N/A   Partly Cloudy
9:56 PM 30.9 °F - 10.0 °F 42% 30.15 in 10.0 mi Calm Calm - N/A   Overcast
10:56 PM 28.9 °F - 12.0 °F 49% 30.16 in 10.0 mi Calm Calm - N/A   Partly Cloudy
11:56 PM 30.0 °F 25.2 °F 12.0 °F 47% 30.15 in 10.0 mi SE 4.6 mph - N/A   Overcast